Skip to main content

Pico / Cabecinho (DROTRH)

ID 11217645 · 38.4338, -28.1141 map

Latest reading · 2026-05-09 18:00 (Europe/Lisbon)

Temperature
9.7 °C
Humidity
99 %
Pressure
Precipitation
0.7 mm
Radiation
687 W/m²
Wind speed
11.9 km/h
Wind direction
S · South

24-hour history

Time (Europe/Lisbon) Temp Humidity Pressure Rain Wind Dir
2026-05-09 18:00 9.7 °C 99 % 0.7 mm 11.9 km/h S
2026-05-09 17:00 10.0 °C 99 % 0.0 mm 11.5 km/h S
2026-05-09 16:00 9.5 °C 99 % 1.3 mm 16.6 km/h S
2026-05-09 15:00 9.6 °C 93 % 0.0 mm 10.8 km/h SW
2026-05-09 14:00 9.7 °C 88 % 0.1 mm 14.4 km/h SE
2026-05-09 13:00 10.1 °C 78 % 0.0 mm 11.9 km/h S
2026-05-09 12:00 9.5 °C 73 % 0.0 mm 13.0 km/h E
2026-05-09 11:00 9.1 °C 77 % 0.0 mm 15.8 km/h SE
2026-05-09 10:00 8.2 °C 84 % 0.5 mm 12.2 km/h SE
2026-05-09 09:00 8.4 °C 84 % 0.0 mm 14.0 km/h E
2026-05-09 08:00 8.2 °C 84 % 0.0 mm 14.4 km/h E
2026-05-09 07:00 8.0 °C 96 % 0.0 mm 10.8 km/h E
2026-05-09 06:00 8.1 °C 93 % 0.1 mm 10.8 km/h E
2026-05-09 05:00 8.2 °C 87 % 0.0 mm 12.6 km/h SE
2026-05-09 04:00 8.1 °C 79 % 0.0 mm 9.7 km/h S
2026-05-09 03:00 8.6 °C 91 % 0.0 mm 10.8 km/h SE
2026-05-09 02:00 8.8 °C 94 % 0.0 mm 12.6 km/h E
2026-05-09 01:00 8.7 °C 99 % 0.2 mm 11.9 km/h SE
2026-05-09 00:00 9.2 °C 99 % 0.1 mm 13.3 km/h NE
2026-05-08 23:00 9.6 °C 99 % 0.3 mm 14.4 km/h SE
2026-05-08 22:00 10.1 °C 98 % 0.3 mm 14.0 km/h E
2026-05-08 21:00 10.3 °C 99 % 0.0 mm 10.8 km/h S
2026-05-08 20:00 10.5 °C 99 % 0.0 mm 8.3 km/h SE